Volver al catálogo

GARAI-B

ActivoCienciaSSO
NORAD 68463·PAYLOAD·🇸🇪 Sweden

Lanzado Mar 30, 2026 desde Vandenberg Space Force Base

Loading…

Próximos Pases (próximas 24 horas)

TLE

ActualizadoSource: Space-Track

Época: Sep 13, 2026, 21:29 UTC

1 68463U 26067AZ  26256.89523156  .00003552  00000-0  19674-3 0  9993
2 68463  97.4627 213.8499 0004787 110.5358 249.6389 15.14443835 25386

Sigue GARAI-B en tiempo real con AllMySat

Download on the App Store